TimeEDT,TemperatureF,Dew PointF,Humidity,Sea Level PressureIn,VisibilityMPH,Wind Direction,Wind SpeedMPH,Gust SpeedMPH,PrecipitationIn,Events,Conditions,WindDirDegrees,DateUTC
12:54 AM,27.0,19.0,72,30.14,10.0,Calm,Calm,-,N/A,,Clear,0,2013-03-31 04:54:00
1:54 AM,26.1,19.0,75,30.13,10.0,Calm,Calm,-,N/A,,Clear,0,2013-03-31 05:54:00
2:54 AM,25.0,19.0,78,30.13,10.0,Calm,Calm,-,N/A,,Clear,0,2013-03-31 06:54:00
3:54 AM,24.1,19.0,81,30.12,10.0,Calm,Calm,-,N/A,,Clear,0,2013-03-31 07:54:00
4:54 AM,23.0,19.0,85,30.13,10.0,Calm,Calm,-,N/A,,Clear,0,2013-03-31 08:54:00
5:54 AM,21.9,18.0,85,30.12,10.0,Calm,Calm,-,N/A,,Clear,0,2013-03-31 09:54:00
6:54 AM,21.9,18.0,85,30.12,10.0,Calm,Calm,-,N/A,,Clear,0,2013-03-31 10:54:00
7:54 AM,25.0,21.0,85,30.12,10.0,Calm,Calm,-,N/A,,Clear,0,2013-03-31 11:54:00
8:54 AM,30.0,21.0,69,30.10,10.0,Calm,Calm,-,N/A,,Clear,0,2013-03-31 12:54:00
9:54 AM,37.9,21.0,51,30.09,10.0,Calm,Calm,-,N/A,,Clear,0,2013-03-31 13:54:00
10:54 AM,44.1,21.9,42,30.06,10.0,Calm,Calm,-,N/A,,Clear,0,2013-03-31 14:54:00
11:54 AM,50.0,19.9,31,30.03,10.0,SSE,11.5,17.3,N/A,,Clear,150,2013-03-31 15:54:00
12:54 PM,52.0,19.9,28,29.99,10.0,SSE,12.7,24.2,N/A,,Clear,150,2013-03-31 16:54:00
1:54 PM,54.0,19.9,26,29.96,10.0,SSE,15.0,18.4,N/A,,Clear,160,2013-03-31 17:54:00
2:54 PM,52.0,19.9,28,29.94,10.0,South,13.8,21.9,N/A,,Clear,190,2013-03-31 18:54:00
3:54 PM,54.0,21.9,29,29.91,10.0,South,15.0,24.2,N/A,,Clear,170,2013-03-31 19:54:00
4:54 PM,54.0,21.0,28,29.88,10.0,South,13.8,23.0,N/A,,Clear,180,2013-03-31 20:54:00
5:54 PM,52.0,21.9,31,29.88,10.0,South,10.4,19.6,N/A,,Clear,180,2013-03-31 21:54:00
6:54 PM,50.0,21.9,33,29.88,10.0,South,10.4,21.9,N/A,,Overcast,180,2013-03-31 22:54:00
7:54 PM,45.0,30.0,56,29.89,10.0,South,13.8,-,N/A,,Overcast,170,2013-03-31 23:54:00
8:20 PM,42.8,33.8,70,29.87,10.0,South,12.7,20.7,0.00,Rain,Light Rain,180,2013-04-01 00:20:00
8:54 PM,41.0,36.0,82,29.88,9.0,South,4.6,-,0.02,Rain,Light Rain,190,2013-04-01 00:54:00
9:54 PM,39.9,37.0,89,29.85,10.0,South,3.5,-,0.03,Rain,Light Rain,170,2013-04-01 01:54:00
10:03 PM,39.2,37.4,93,29.83,10.0,Calm,Calm,-,0.00,Rain,Light Rain,0,2013-04-01 02:03:00
11:10 PM,39.2,37.4,93,29.78,2.5,Calm,Calm,-,0.02,Rain,Light Rain,0,2013-04-01 03:10:00
11:25 PM,37.4,37.4,100,29.77,3.0,Calm,Calm,-,0.05,Rain,Light Rain,0,2013-04-01 03:25:00
11:32 PM,37.4,37.4,100,29.76,1.8,ENE,5.8,-,0.06,Rain,Light Rain,60,2013-04-01 03:32:00
11:38 PM,37.4,37.4,100,29.76,2.0,East,3.5,-,0.07,Rain,Rain,80,2013-04-01 03:38:00
11:49 PM,39.2,37.4,93,29.75,3.0,Variable,3.5,-,0.11,Rain,Rain,0,2013-04-01 03:49:00
11:54 PM,37.9,37.0,97,29.77,3.0,Calm,Calm,-,0.13,Rain,Rain,0,2013-04-01 03:54:00